GW1682 Weather Reports


Display with metric or nautical units.
time (UTC)temp
F
wind
direction
speed
MPH
gust
MPH
rain 1hr
in
rain 24hr
in
rain mn
in
humidity
%
barometer
mb
20260507010325 61 151 0.0 2.0 0.00 0.00 0.00 57 1015.1
20260507004826 61 155 2.0 2.0 0.00 0.00 0.00 58 1015.2
20260507001931 61 155 0.0 0.0 0.00 0.00 0.00 59 1014.9
20260507000328 62 154 0.0 0.0 0.00 0.00 0.00 59 1015.2
20260506234826 62 155 0.0 0.0 0.00 0.00 0.00 59 1015.5
20260506231823 62 149 0.0 0.0 0.00 0.00 0.00 57 1015.8
20260506230324 63 149 0.0 0.0 0.00 0.00 0.00 56 1015.9
20260506224826 63 149 0.0 0.0 0.00 0.00 0.00 55 1015.9
20260506223327 63 175 0.0 0.0 0.00 0.00 0.00 55 1016.0
20260506221823 63 166 0.0 0.0 0.00 0.00 0.00 56 1016.1
20260506220327 63 166 0.0 0.0 0.00 0.00 0.00 56 1015.9
20260506214827 64 165 0.0 0.0 0.00 0.00 0.00 55 1016.0
20260506213324 64 154 0.0 0.0 0.00 0.00 0.00 55 1016.2
20260506211823 64 147 0.0 0.0 0.00 0.00 0.00 53 1016.4
20260506204823 65 148 0.0 0.0 0.00 0.00 0.00 52 1016.5
20260506203326 65 149 0.0 0.0 0.00 0.00 0.00 51 1016.6
20260506200312 66 147 0.0 0.0 0.00 0.00 0.00 50 1016.3
20260506194822 67 144 0.0 0.0 0.00 0.00 0.00 49 1016.3
20260506193307 67 11 0.0 0.0 0.00 0.00 0.00 47 1016.1
20260506191806 68 75 0.0 0.0 0.00 0.00 0.00 47 1015.8
20260506184808 67 183 0.0 2.0 0.00 0.00 0.00 47 1015.7
20260506183305 68 140 2.0 2.0 0.00 0.00 0.00 47 1015.5
20260506181806 68 171 0.0 3.0 0.00 0.00 0.00 46 1015.3
20260506180303 69 162 0.0 3.0 0.00 0.00 0.00 44 1015.2
20260506174802 70 144 1.0 3.0 0.00 0.00 0.00 44 1015.2
20260506173304 71 164 1.0 3.0 0.00 0.00 0.00 40 1015.0
20260506171803 71 209 1.0 5.0 0.00 0.00 0.00 39 1014.9
20260506170303 72 219 0.0 5.0 0.00 0.00 0.00 39 1014.8
20260506164810 72 299 2.0 11.0 0.00 0.00 0.00 39 1014.7
20260506163326 73 241 2.0 9.0 0.00 0.00 0.00 38 1014.8
20260506161803 73 244 1.0 6.0 0.00 0.00 0.00 37 1014.6
20260506160310 73 213 3.0 12.0 0.00 0.00 0.00 37 1014.6
20260506154804 74 183 1.0 6.0 0.00 0.00 0.00 37 1014.7
20260506153303 74 224 3.0 9.0 0.00 0.00 0.00 37 1014.8
20260506151803 74 197 4.0 9.0 0.00 0.00 0.00 38 1014.9
20260506150304 75 220 2.0 12.0 0.00 0.00 0.00 39 1014.9
20260506144806 75 220 4.0 13.0 0.00 0.00 0.00 41 1014.9
20260506143303 75 140 3.0 11.0 0.00 0.00 0.00 40 1014.9
20260506141802 75 121 2.0 7.0 0.00 0.00 0.00 41 1014.9
20260506140303 76 279 3.0 9.0 0.00 0.00 0.00 41 1014.9
20260506133302 76 247 2.0 10.0 0.00 0.00 0.00 41 1015.1
20260506130303 76 292 2.0 9.0 0.00 0.00 0.00 39 1015.0
20260506124807 76 302 3.0 9.0 0.00 0.00 0.00 40 1015.1
20260506123306 77 142 2.0 10.0 0.00 0.00 0.00 38 1015.2
20260506120309 77 234 4.0 10.0 0.00 0.00 0.00 37 1015.4
20260506114810 77 228 2.0 7.0 0.00 0.00 0.00 35 1015.5
20260506111822 77 203 3.0 7.0 0.00 0.00 0.00 39 1015.7
20260506104809 76 192 4.0 9.0 0.00 0.00 0.00 42 1015.8
20260506103307 76 203 2.0 5.0 0.00 0.00 0.00 40 1015.7
20260506101811 76 257 1.0 7.0 0.00 0.00 0.00 40 1015.9
20260506094809 75 221 2.0 7.0 0.00 0.00 0.00 42 1015.9
20260506093309 75 243 2.0 7.0 0.00 0.00 0.00 42 1015.9
20260506090308 74 185 2.0 4.0 0.00 0.00 0.00 43 1016.0
20260506084808 74 224 1.0 5.0 0.00 0.00 0.00 45 1015.8
20260506083306 74 217 1.0 4.0 0.00 0.00 0.00 45 1015.8
20260506081812 73 244 1.0 5.0 0.00 0.00 0.00 43 1015.8
20260506080301 73 219 1.0 4.0 0.00 0.00 0.00 45 1015.8
20260506073305 72 245 1.0 4.0 0.00 0.00 0.00 46 1015.5
20260506071806 72 207 1.0 3.0 0.00 0.00 0.00 46 1015.4
20260506061804 69 157 0.0 0.0 0.00 0.00 0.00 44 1015.4
20260506050255 63 20 0.0 0.0 0.00 0.00 0.00 58 1015.0
20260506044757 62 152 0.0 0.0 0.00 0.00 0.00 60 1014.9
20260506043300 60 161 0.0 0.0 0.00 0.00 0.00 62 1014.9
20260506041802 60 148 0.0 0.0 0.00 0.00 0.00 63 1014.9
20260506040254 60 90 0.0 0.0 0.00 0.00 0.00 63 1014.8
20260506034801 60 141 0.0 0.0 0.00 0.00 0.00 63 1014.6
20260506033300 60 131 0.0 0.0 0.00 0.00 0.00 62 1014.5
20260506031755 60 127 0.0 0.0 0.00 0.00 0.00 63 1014.4
20260506030259 60 161 0.0 1.0 0.00 0.00 0.00 63 1014.3
20260506024805 60 166 1.0 2.0 0.00 0.00 0.00 63 1014.3
20260506023258 60 161 0.0 2.0 0.00 0.00 0.00 64 1014.4
20260506021800 60 158 1.0 2.0 0.00 0.00 0.00 64 1014.5
20260506020259 60 142 2.0 2.0 0.00 0.00 0.00 66 1014.5
20260506014801 60 140 2.0 3.0 0.00 0.00 0.00 66 1014.6
20260506013258 61 144 1.0 2.0 0.00 0.00 0.00 66 1014.7